| time (UTC) | temp F | wind direction | speed MPH | gust MPH | rain 1hr in | rain 24hr in | rain mn in | humidity % | barometer mb |
| 20260508041529 | 56 | 83 | 0.0 | 0.0 | 0.00 | 0.00 | 0.00 | 88 | 1016.2 |
| 20260508041513 | 56 | 53 | 0.0 | 0.0 | 0.00 | 0.00 | 0.00 | 88 | 1016.9 |
| 20260508040035 | 56 | 82 | 0.0 | 0.0 | 0.00 | 0.00 | 0.00 | 88 | 1016.2 |
| 20260508040008 | 56 | 52 | 0.0 | 0.0 | 0.00 | 0.00 | 0.00 | 89 | 1017.0 |
| 20260508034530 | 57 | 82 | 0.0 | 0.0 | 0.00 | 0.00 | 0.00 | 88 | 1016.0 |
| 20260508034510 | 57 | 53 | 0.0 | 0.0 | 0.00 | 0.00 | 0.00 | 89 | 1016.8 |
| 20260508033024 | 57 | 82 | 0.0 | 0.0 | 0.00 | 0.00 | 0.00 | 89 | 1016.0 |
| 20260508033007 | 57 | 52 | 0.0 | 0.0 | 0.00 | 0.00 | 0.00 | 89 | 1016.7 |
| 20260508031531 | 58 | 83 | 0.0 | 0.0 | 0.00 | 0.00 | 0.00 | 88 | 1016.0 |
| 20260508031506 | 58 | 52 | 0.0 | 0.0 | 0.00 | 0.00 | 0.00 | 88 | 1016.8 |
| 20260508030026 | 58 | 83 | 0.0 | 0.0 | 0.00 | 0.00 | 0.00 | 87 | 1015.8 |
| 20260508030007 | 58 | 52 | 0.0 | 0.0 | 0.00 | 0.00 | 0.00 | 88 | 1016.7 |
| 20260508024541 | 59 | 83 | 0.0 | 0.0 | 0.00 | 0.00 | 0.00 | 86 | 1015.9 |
| 20260508024508 | 58 | 52 | 0.0 | 0.0 | 0.00 | 0.00 | 0.00 | 87 | 1016.8 |
| 20260508023030 | 59 | 83 | 0.0 | 0.0 | 0.00 | 0.00 | 0.00 | 84 | 1015.8 |
| 20260508023005 | 59 | 53 | 0.0 | 0.0 | 0.00 | 0.00 | 0.00 | 84 | 1016.6 |
| 20260508021524 | 59 | 82 | 0.0 | 0.0 | 0.00 | 0.00 | 0.00 | 83 | 1015.4 |
| 20260508021504 | 59 | 52 | 0.0 | 0.0 | 0.00 | 0.00 | 0.00 | 84 | 1016.2 |
| 20260508020024 | 60 | 82 | 0.0 | 0.0 | 0.00 | 0.00 | 0.00 | 82 | 1015.5 |
| 20260508020012 | 60 | 53 | 0.0 | 0.0 | 0.00 | 0.00 | 0.00 | 83 | 1016.4 |
| 20260508014541 | 60 | 82 | 0.0 | 0.0 | 0.00 | 0.00 | 0.00 | 81 | 1015.2 |
| 20260508014503 | 60 | 53 | 0.0 | 0.0 | 0.00 | 0.00 | 0.00 | 81 | 1016.0 |
| 20260508013018 | 61 | 83 | 0.0 | 0.0 | 0.00 | 0.00 | 0.00 | 79 | 1015.2 |
| 20260508013004 | 61 | 53 | 0.0 | 0.0 | 0.00 | 0.00 | 0.00 | 79 | 1016.0 |
| 20260508011519 | 62 | 82 | 0.0 | 0.0 | 0.00 | 0.00 | 0.00 | 76 | 1015.0 |
| 20260508011501 | 62 | 52 | 0.0 | 0.0 | 0.00 | 0.00 | 0.00 | 77 | 1015.7 |
| 20260508010107 | 64 | 53 | 0.0 | 0.0 | 0.00 | 0.00 | 0.00 | 73 | 1015.9 |
| 20260508010023 | 64 | 82 | 0.0 | 0.0 | 0.00 | 0.00 | 0.00 | 72 | 1014.9 |
| 20260508004604 | 65 | 53 | 0.0 | 0.0 | 0.00 | 0.00 | 0.00 | 73 | 1015.7 |
| 20260508004515 | 65 | 82 | 0.0 | 0.0 | 0.00 | 0.00 | 0.00 | 72 | 1014.9 |
| 20260508003111 | 67 | 53 | 0.0 | 1.0 | 0.00 | 0.00 | 0.00 | 72 | 1015.7 |
| 20260508003048 | 67 | 83 | 0.0 | 1.0 | 0.00 | 0.00 | 0.00 | 71 | 1014.9 |
| 20260508001525 | 68 | 49 | 0.0 | 0.0 | 0.00 | 0.00 | 0.00 | 68 | 1014.7 |
| 20260508001504 | 68 | 20 | 0.0 | 0.0 | 0.00 | 0.00 | 0.00 | 68 | 1015.6 |
| 20260508000022 | 68 | 78 | 0.0 | 1.0 | 0.00 | 0.00 | 0.00 | 64 | 1014.8 |
| 20260508000018 | 68 | 48 | 0.0 | 1.0 | 0.00 | 0.00 | 0.00 | 65 | 1015.6 |
| 20260507234610 | 69 | 51 | 0.0 | 0.0 | 0.00 | 0.00 | 0.00 | 62 | 1015.6 |
| 20260507234516 | 69 | 82 | 0.0 | 0.0 | 0.00 | 0.00 | 0.00 | 60 | 1014.8 |
| 20260507233017 | 70 | 38 | 0.0 | 0.0 | 0.00 | 0.00 | 0.00 | 58 | 1014.7 |
| 20260507233001 | 70 | 8 | 0.0 | 0.0 | 0.00 | 0.00 | 0.00 | 58 | 1015.5 |
| 20260507231530 | 70 | 38 | 0.0 | 0.0 | 0.00 | 0.00 | 0.00 | 55 | 1014.9 |
| 20260507231517 | 70 | 8 | 0.0 | 0.0 | 0.00 | 0.00 | 0.00 | 55 | 1015.7 |
| 20260507230018 | 70 | 8 | 0.0 | 1.0 | 0.00 | 0.00 | 0.00 | 53 | 1015.9 |
| 20260507230013 | 70 | 38 | 0.0 | 1.0 | 0.00 | 0.00 | 0.00 | 50 | 1015.0 |
| 20260507224604 | 70 | 343 | 0.0 | 0.0 | 0.00 | 0.00 | 0.00 | 53 | 1015.8 |
| 20260507224512 | 70 | 13 | 0.0 | 0.0 | 0.00 | 0.00 | 0.00 | 51 | 1014.9 |
| 20260507223033 | 70 | 339 | 1.0 | 4.0 | 0.00 | 0.00 | 0.00 | 50 | 1015.7 |
| 20260507223025 | 70 | 10 | 1.0 | 4.0 | 0.00 | 0.00 | 0.00 | 48 | 1014.9 |
| 20260507221519 | 70 | 7 | 0.0 | 3.0 | 0.00 | 0.00 | 0.00 | 50 | 1015.0 |
| 20260507221516 | 70 | 338 | 0.0 | 3.0 | 0.00 | 0.00 | 0.00 | 51 | 1016.0 |
| 20260507220016 | 70 | 30 | 0.0 | 1.0 | 0.00 | 0.00 | 0.00 | 52 | 1014.8 |
| 20260507214513 | 70 | 32 | 0.0 | 0.0 | 0.00 | 0.00 | 0.00 | 52 | 1016.0 |
| 20260507213015 | 70 | 73 | 0.0 | 2.0 | 0.00 | 0.00 | 0.00 | 50 | 1015.9 |
| 20260507213012 | 70 | 102 | 0.0 | 2.0 | 0.00 | 0.00 | 0.00 | 49 | 1014.9 |
| 20260507211510 | 69 | 355 | 0.0 | 4.0 | 0.00 | 0.00 | 0.00 | 50 | 1016.1 |
| 20260507210031 | 69 | 81 | 0.0 | 5.0 | 0.00 | 0.00 | 0.00 | 50 | 1015.3 |
| 20260507210008 | 69 | 53 | 0.0 | 5.0 | 0.00 | 0.00 | 0.00 | 51 | 1016.3 |
| 20260507204521 | 69 | 31 | 0.0 | 4.0 | 0.00 | 0.00 | 0.00 | 51 | 1015.3 |
| 20260507204507 | 69 | 2 | 0.0 | 4.0 | 0.00 | 0.00 | 0.00 | 52 | 1016.3 |
| 20260507203019 | 69 | 358 | 2.0 | 7.0 | 0.00 | 0.00 | 0.00 | 52 | 1015.5 |
| 20260507203005 | 69 | 337 | 2.0 | 7.0 | 0.00 | 0.00 | 0.00 | 52 | 1016.5 |
| 20260507201520 | 69 | 23 | 0.0 | 4.0 | 0.00 | 0.00 | 0.00 | 51 | 1015.7 |
| 20260507201505 | 69 | 354 | 0.0 | 4.0 | 0.00 | 0.00 | 0.00 | 52 | 1016.6 |
| 20260507200013 | 69 | 21 | 0.0 | 4.0 | 0.00 | 0.00 | 0.00 | 49 | 1015.9 |
| 20260507200003 | 69 | 351 | 0.0 | 4.0 | 0.00 | 0.00 | 0.00 | 50 | 1016.7 |
| 20260507194535 | 70 | 28 | 0.0 | 2.0 | 0.00 | 0.00 | 0.00 | 48 | 1016.0 |
| 20260507194502 | 70 | 358 | 0.0 | 2.0 | 0.00 | 0.01 | 0.00 | 49 | 1016.9 |
| 20260507193109 | 68 | 359 | 0.0 | 1.0 | 0.00 | 0.01 | 0.00 | 52 | 1017.2 |
| 20260507193031 | 68 | 29 | 0.0 | 1.0 | 0.00 | 0.00 | 0.00 | 54 | 1016.3 |
| 20260507191556 | 68 | 12 | 0.0 | 1.0 | 0.00 | 0.01 | 0.00 | 56 | 1017.4 |
| 20260507191523 | 68 | 42 | 0.0 | 1.0 | 0.00 | 0.00 | 0.00 | 55 | 1016.5 |
| 20260507190027 | 68 | 53 | 0.0 | 1.0 | 0.00 | 0.01 | 0.00 | 54 | 1016.6 |
| 20260507184551 | 67 | 18 | 0.0 | 1.0 | 0.00 | 0.10 | 0.00 | 58 | 1017.7 |
| 20260507184521 | 67 | 78 | 0.0 | 3.0 | 0.00 | 0.03 | 0.00 | 59 | 1016.8 |
| 20260507183049 | 65 | 343 | 0.0 | 3.0 | 0.00 | 0.10 | 0.00 | 56 | 1017.9 |
| 20260507183016 | 65 | 13 | 0.0 | 3.0 | 0.00 | 0.06 | 0.00 | 54 | 1017.1 |
| 20260507181545 | 65 | 65 | 0.0 | 4.0 | 0.00 | 0.10 | 0.00 | 56 | 1018.4 |
| 20260507181527 | 65 | 90 | 0.0 | 4.0 | 0.00 | 0.08 | 0.00 | 55 | 1017.4 |
| 20260507180050 | 65 | 10 | 0.0 | 1.0 | 0.00 | 0.10 | 0.00 | 56 | 1018.5 |
| 20260507180027 | 65 | 41 | 0.0 | 1.0 | 0.00 | 0.10 | 0.00 | 56 | 1017.7 |
| 20260507174544 | 65 | 340 | 0.0 | 4.0 | 0.00 | 0.32 | 0.00 | 60 | 1018.8 |
| 20260507174526 | 65 | 14 | 0.0 | 4.0 | 0.00 | 0.11 | 0.00 | 57 | 1017.9 |
| 20260507173041 | 64 | 349 | 0.0 | 3.0 | 0.00 | 0.32 | 0.00 | 55 | 1019.2 |
| 20260507173027 | 64 | 13 | 1.0 | 4.0 | 0.00 | 0.11 | 0.00 | 55 | 1018.2 |
| 20260507171538 | 63 | 348 | 0.0 | 1.0 | 0.00 | 0.32 | 0.00 | 58 | 1019.4 |
| 20260507171522 | 63 | 18 | 0.0 | 1.0 | 0.00 | 0.12 | 0.00 | 57 | 1018.4 |
| 20260507170039 | 63 | 316 | 0.0 | 1.0 | 0.00 | 0.32 | 0.00 | 60 | 1019.6 |
| 20260507170022 | 63 | 11 | 0.0 | 1.0 | 0.00 | 0.32 | 0.00 | 60 | 1018.6 |
| 20260507164537 | 62 | 343 | 0.0 | 1.0 | 0.00 | 0.38 | 0.00 | 61 | 1019.7 |
| 20260507164511 | 62 | 14 | 0.0 | 1.0 | 0.00 | 0.32 | 0.00 | 61 | 1018.7 |
| 20260507163033 | 61 | 357 | 0.0 | 1.0 | 0.00 | 0.38 | 0.00 | 64 | 1019.7 |
| 20260507163019 | 61 | 44 | 0.0 | 1.0 | 0.00 | 0.38 | 0.00 | 62 | 1018.8 |
| 20260507161530 | 61 | 350 | 0.0 | 1.0 | 0.00 | 0.38 | 0.00 | 63 | 1019.9 |
| 20260507161527 | 61 | 19 | 0.0 | 3.0 | 0.00 | 0.38 | 0.00 | 62 | 1019.2 |
| 20260507160105 | 60 | 352 | 0.0 | 3.0 | 0.00 | 0.38 | 0.00 | 63 | 1020.1 |
| 20260507160025 | 60 | 26 | 0.0 | 3.0 | 0.00 | 0.38 | 0.00 | 63 | 1019.3 |
| 20260507154524 | 60 | 29 | 0.0 | 1.0 | 0.00 | 0.38 | 0.00 | 65 | 1019.3 |
| 20260507154503 | 60 | 359 | 0.0 | 1.0 | 0.00 | 0.39 | 0.00 | 65 | 1020.0 |
| 20260507153119 | 59 | 354 | 0.0 | 1.0 | 0.00 | 0.39 | 0.00 | 66 | 1020.0 |
| 20260507153030 | 59 | 17 | 0.0 | 1.0 | 0.00 | 0.38 | 0.00 | 67 | 1019.4 |
| 20260507151556 | 58 | 339 | 1.0 | 4.0 | 0.00 | 0.39 | 0.00 | 71 | 1020.2 |
| 20260507151515 | 58 | 358 | 1.0 | 4.0 | 0.00 | 0.38 | 0.00 | 72 | 1019.4 |
| 20260507150013 | 57 | 43 | 0.0 | 1.0 | 0.00 | 0.39 | 0.00 | 75 | 1019.5 |
| 20260507150003 | 57 | 13 | 0.0 | 1.0 | 0.00 | 0.39 | 0.00 | 76 | 1020.2 |
| 20260507144531 | 57 | 26 | 0.0 | 3.0 | 0.00 | 0.39 | 0.00 | 77 | 1019.4 |
| 20260507144520 | 57 | 353 | 0.0 | 2.0 | 0.00 | 0.39 | 0.00 | 78 | 1020.0 |
| 20260507143027 | 56 | 48 | 0.0 | 3.0 | 0.00 | 0.39 | 0.00 | 79 | 1019.2 |
| 20260507141525 | 55 | 29 | 0.0 | 3.0 | 0.00 | 0.39 | 0.00 | 83 | 1019.3 |
| 20260507141510 | 55 | 359 | 0.0 | 3.0 | 0.00 | 0.39 | 0.00 | 84 | 1020.0 |
| 20260507140029 | 54 | 79 | 0.0 | 2.0 | 0.00 | 0.39 | 0.00 | 84 | 1019.9 |
| 20260507140004 | 54 | 99 | 0.0 | 4.0 | 0.00 | 0.39 | 0.00 | 84 | 1019.2 |
| 20260507134522 | 54 | 12 | 0.0 | 1.0 | 0.00 | 0.39 | 0.00 | 87 | 1019.9 |
| 20260507134520 | 54 | 43 | 0.0 | 1.0 | 0.00 | 0.39 | 0.00 | 87 | 1019.1 |
| 20260507133019 | 53 | 359 | 0.0 | 1.0 | 0.00 | 0.39 | 0.00 | 89 | 1019.7 |
| 20260507131520 | 52 | 348 | 0.0 | 4.0 | 0.00 | 0.39 | 0.00 | 90 | 1019.8 |
| 20260507131511 | 52 | 19 | 0.0 | 4.0 | 0.00 | 0.39 | 0.00 | 89 | 1019.0 |
| 20260507130015 | 51 | 22 | 0.0 | 1.0 | 0.00 | 0.39 | 0.00 | 92 | 1019.5 |
| 20260507130007 | 51 | 55 | 0.0 | 1.0 | 0.00 | 0.39 | 0.00 | 91 | 1018.5 |
| 20260507124517 | 50 | 349 | 0.0 | 1.0 | 0.00 | 0.42 | 0.00 | 94 | 1019.4 |
| 20260507124512 | 50 | 18 | 0.0 | 1.0 | 0.00 | 0.39 | 0.00 | 94 | 1018.3 |
| 20260507123012 | 50 | 28 | 0.0 | 1.0 | 0.00 | 0.42 | 0.00 | 95 | 1019.1 |
| 20260507123005 | 50 | 58 | 0.0 | 1.0 | 0.00 | 0.39 | 0.00 | 95 | 1018.1 |
| 20260507121520 | 49 | 18 | 0.0 | 1.0 | 0.00 | 0.39 | 0.00 | 96 | 1018.2 |
| 20260507121512 | 49 | 348 | 0.0 | 1.0 | 0.00 | 0.42 | 0.00 | 96 | 1019.2 |
| 20260507120018 | 49 | 37 | 0.0 | 2.0 | 0.00 | 0.40 | 0.00 | 96 | 1018.0 |
| 20260507120012 | 49 | 7 | 0.0 | 2.0 | 0.00 | 0.42 | 0.00 | 96 | 1018.9 |
| 20260507114515 | 48 | 19 | 0.0 | 1.0 | 0.00 | 0.51 | 0.00 | 97 | 1017.9 |
| 20260507114509 | 48 | 349 | 0.0 | 1.0 | 0.00 | 0.66 | 0.00 | 97 | 1018.9 |
| 20260507113009 | 48 | 28 | 0.0 | 1.0 | 0.00 | 0.51 | 0.00 | 97 | 1017.8 |
| 20260507111510 | 48 | 8 | 0.0 | 0.0 | 0.00 | 0.66 | 0.00 | 98 | 1018.8 |
| 20260507110011 | 48 | 38 | 0.0 | 1.0 | 0.00 | 0.66 | 0.00 | 97 | 1017.5 |
| 20260507110008 | 48 | 8 | 0.0 | 1.0 | 0.00 | 0.66 | 0.00 | 98 | 1018.4 |
| 20260507104527 | 48 | 49 | 0.0 | 1.0 | 0.00 | 0.71 | 0.00 | 97 | 1017.5 |
| 20260507104512 | 48 | 18 | 0.0 | 1.0 | 0.00 | 0.74 | 0.00 | 98 | 1018.4 |
| 20260507103024 | 48 | 48 | 0.0 | 0.0 | 0.00 | 0.71 | 0.00 | 97 | 1017.2 |
| 20260507103021 | 48 | 18 | 0.0 | 0.0 | 0.00 | 0.74 | 0.00 | 98 | 1018.2 |
| 20260507101554 | 48 | 24 | 0.0 | 0.0 | 0.00 | 0.74 | 0.00 | 97 | 1018.2 |
| 20260507101527 | 48 | 54 | 0.0 | 0.0 | 0.00 | 0.72 | 0.00 | 97 | 1017.2 |
| 20260507100051 | 48 | 24 | 0.0 | 0.0 | 0.00 | 0.74 | 0.00 | 97 | 1017.9 |
| 20260507100026 | 48 | 21 | 0.0 | 0.0 | 0.00 | 0.74 | 0.00 | 97 | 1016.8 |
| 20260507094554 | 48 | 351 | 0.0 | 0.0 | 0.00 | 0.74 | 0.00 | 97 | 1018.0 |
| 20260507094508 | 48 | 20 | 0.0 | 0.0 | 0.00 | 0.74 | 0.00 | 96 | 1017.1 |
| 20260507093047 | 49 | 351 | 0.0 | 0.0 | 0.00 | 0.74 | 0.00 | 97 | 1017.4 |
| 20260507093031 | 49 | 21 | 0.0 | 0.0 | 0.00 | 0.74 | 0.00 | 96 | 1016.4 |
| 20260507091546 | 50 | 21 | 0.0 | 0.0 | 0.00 | 0.74 | 0.00 | 97 | 1016.7 |
| 20260507090043 | 50 | 351 | 0.0 | 1.0 | 0.00 | 0.74 | 0.00 | 97 | 1017.9 |
| 20260507090022 | 50 | 20 | 0.0 | 1.0 | 0.00 | 0.74 | 0.00 | 97 | 1016.8 |
| 20260507084544 | 51 | 20 | 0.0 | 1.0 | 0.00 | 1.13 | 0.00 | 98 | 1017.9 |
| 20260507084525 | 51 | 50 | 0.0 | 1.0 | 0.00 | 0.75 | 0.00 | 97 | 1016.9 |
| 20260507083047 | 51 | 27 | 0.0 | 1.0 | 0.00 | 1.13 | 0.00 | 98 | 1017.9 |
| 20260507083019 | 51 | 57 | 0.0 | 1.0 | 0.00 | 0.75 | 0.00 | 97 | 1016.8 |
| 20260507081540 | 50 | 349 | 0.0 | 0.0 | 0.00 | 1.13 | 0.00 | 97 | 1017.8 |
| 20260507081510 | 50 | 19 | 0.0 | 0.0 | 0.00 | 0.81 | 0.00 | 97 | 1016.8 |
| 20260507080048 | 51 | 349 | 0.0 | 0.0 | 0.00 | 1.13 | 0.00 | 97 | 1017.5 |
| 20260507080025 | 51 | 18 | 0.0 | 0.0 | 0.00 | 1.14 | 0.00 | 97 | 1016.5 |
| 20260507074543 | 51 | 349 | 0.0 | 0.0 | 0.00 | 1.15 | 0.00 | 97 | 1017.6 |
| 20260507074529 | 51 | 19 | 0.0 | 0.0 | 0.00 | 1.15 | 0.00 | 97 | 1016.5 |
| 20260507073035 | 52 | 349 | 0.0 | 0.0 | 0.00 | 1.15 | 0.00 | 97 | 1017.7 |
| 20260507073022 | 52 | 19 | 0.0 | 0.0 | 0.00 | 1.16 | 0.00 | 97 | 1016.7 |
| 20260507071552 | 52 | 349 | 0.0 | 1.0 | 0.00 | 1.15 | 0.00 | 97 | 1017.7 |
| 20260507071518 | 52 | 19 | 0.0 | 1.0 | 0.00 | 1.16 | 0.00 | 97 | 1016.6 |
| 20260507070035 | 52 | 17 | 0.0 | 0.0 | 0.00 | 1.15 | 0.00 | 96 | 1017.7 |
| 20260507070016 | 52 | 48 | 0.0 | 0.0 | 0.00 | 1.16 | 0.00 | 96 | 1016.7 |
| 20260507064530 | 52 | 17 | 0.0 | 0.0 | 0.00 | 2.02 | 0.00 | 96 | 1017.7 |
| 20260507064516 | 52 | 47 | 0.0 | 0.0 | 0.00 | 1.16 | 0.00 | 95 | 1016.7 |
| 20260507063032 | 53 | 17 | 0.0 | 0.0 | 0.00 | 2.02 | 0.00 | 95 | 1017.8 |
| 20260507063026 | 53 | 47 | 0.0 | 0.0 | 0.00 | 1.16 | 0.00 | 95 | 1016.7 |
| 20260507061531 | 53 | 47 | 0.0 | 0.0 | 0.00 | 1.76 | 0.00 | 95 | 1016.7 |
| 20260507061528 | 53 | 17 | 0.0 | 0.0 | 0.00 | 2.02 | 0.00 | 96 | 1017.8 |
| 20260507060031 | 53 | 47 | 0.0 | 0.0 | 0.00 | 2.03 | 0.00 | 95 | 1017.0 |
| 20260507060027 | 53 | 17 | 0.0 | 0.0 | 0.00 | 2.02 | 0.00 | 96 | 1018.1 |
| 20260507054526 | 53 | 17 | 0.0 | 0.0 | 0.00 | 2.02 | 0.00 | 96 | 1018.1 |
| 20260507054524 | 53 | 47 | 0.0 | 0.0 | 0.00 | 2.03 | 0.00 | 96 | 1017.0 |
| 20260507053024 | 53 | 18 | 0.0 | 0.0 | 0.00 | 2.02 | 0.00 | 95 | 1018.0 |
| 20260507053019 | 53 | 47 | 0.0 | 0.0 | 0.00 | 2.03 | 0.00 | 95 | 1016.9 |
| 20260507051523 | 53 | 17 | 0.0 | 0.0 | 0.00 | 2.02 | 0.00 | 94 | 1017.9 |
| 20260507051518 | 53 | 47 | 0.0 | 0.0 | 0.00 | 2.03 | 0.00 | 94 | 1016.8 |
| 20260507050020 | 53 | 17 | 0.0 | 0.0 | 0.00 | 2.02 | 0.00 | 95 | 1018.1 |
| 20260507050011 | 53 | 47 | 0.0 | 0.0 | 0.00 | 2.03 | 0.00 | 95 | 1017.1 |
| 20260507044521 | 53 | 18 | 0.0 | 0.0 | 0.00 | 2.02 | 2.02 | 95 | 1017.8 |
| 20260507044506 | 53 | 47 | 0.0 | 0.0 | 0.00 | 2.03 | 2.03 | 94 | 1016.9 |
| 20260507043022 | 53 | 18 | 0.0 | 0.0 | 0.00 | 2.02 | 2.02 | 95 | 1018.0 |
| 20260507043004 | 53 | 47 | 0.0 | 0.0 | 0.00 | 2.03 | 2.03 | 95 | 1016.9 |